Location: Fort Worth, Tx
(32.7431°N, 97.3695°W)
Time: 12:08:04
(UTC-05:00)

Tiros 1 - All Passes

Search period start: 22 February 2024 00:00
Search period end: 03 March 2024 00:00
Orbit: 625 x 658 km, 48.4° (Epoch: 22 February)

Date Brightness Start Highest point End Pass type
(mag) Time Alt. Az. Time Alt. Az. Time Alt. Az.
22 Feb - 01:25:55 10° NW 01:28:30 14° NNW 01:31:05 10° NNE night (unlit)
22 Feb - 03:10:11 10° NNW 03:12:16 13° N 03:14:22 10° NE night (unlit)
22 Feb - 04:51:29 10° NNW 04:55:37 29° NNE 04:59:42 10° E visible
22 Feb - 06:33:17 10° WNW 06:37:54 53° SW 06:42:24 10° SSE visible
22 Feb - 20:44:23 10° SSE 20:46:00 12° SE 20:47:38 10° ESE visible
22 Feb - 22:22:44 10° SW 22:27:30 85° SE 22:32:18 10° NE visible
23 Feb - 00:06:17 10° WNW 00:10:02 22° NNW 00:13:48 10° NNE night (unlit)
23 Feb - 01:51:47 10° NNW 01:53:34 12° N 01:55:22 10° NNE night (unlit)
23 Feb - 03:34:12 10° NNW 03:37:17 17° NNE 03:40:21 10° ENE night (unlit)
23 Feb - 05:15:30 10° NW 05:20:10 57° NE 05:24:46 10° ESE visible
23 Feb - 06:58:22 10° W 07:01:56 21° SW 07:05:28 10° S visible
23 Feb - 21:05:49 10° SSW 21:09:56 30° SE 21:14:05 10° ENE visible
23 Feb - 22:47:19 10° WSW 22:51:53 44° NNW 22:56:28 10° NE visible
24 Feb - 00:32:09 10° NW 00:34:56 15° NNW 00:37:43 10° NNE night (unlit)
24 Feb - 02:16:43 10° NNW 02:18:41 12° N 02:20:40 10° NNE night (unlit)
24 Feb - 03:58:06 10° NNW 04:02:07 26° NNE 04:06:05 10° E night (unlit)
24 Feb - 05:39:48 10° WNW 05:44:28 63° SW 05:49:05 10° SE visible
24 Feb - 21:29:20 10° SW 21:34:03 73° SE 21:38:50 10° NE visible
24 Feb - 23:12:36 10° W 23:16:31 24° NNW 23:20:26 10° NNE night (unlit)
25 Feb - 00:58:05 10° NNW 00:59:59 12° N 01:01:53 10° NNE night (unlit)
25 Feb - 02:40:49 10° NNW 02:43:43 16° NNE 02:46:37 10° NE night (unlit)
25 Feb - 04:22:05 10° NW 04:26:42 49° NE 04:31:15 10° ESE night (unlit)
25 Feb - 06:04:41 10° WNW 06:08:33 25° SW 06:12:23 10° S visible
25 Feb - 20:12:40 10° S 20:16:32 25° SE 20:20:26 10° ENE visible
25 Feb - 21:53:46 10° WSW 21:58:23 50° NW 22:03:04 10° NE visible
25 Feb - 23:38:24 10° NW 23:41:22 16° NNW 23:44:19 10° NNE night (unlit)
26 Feb - 01:23:13 10° NNW 01:25:06 12° N 01:26:59 10° NNE night (unlit)
26 Feb - 03:04:42 10° NNW 03:08:35 24° NNE 03:12:25 10° E night (unlit)
26 Feb - 04:46:18 10° NW 04:51:02 74° SW 04:55:42 10° SE night (unlit)
26 Feb - 20:35:56 10° SW 20:40:37 62° SE 20:45:20 10° ENE visible
26 Feb - 22:18:56 10° W 22:22:59 27° NNW 22:27:03 10° NNE visible
27 Feb - 00:04:21 10° NNW 00:06:23 12° N 00:08:25 10° NNE night (unlit)
27 Feb - 01:47:24 10° NNW 01:50:09 15° NNE 01:52:53 10° NE night (unlit)
27 Feb - 03:28:39 10° NW 03:33:12 43° NNE 03:37:42 10° ESE night (unlit)
27 Feb - 05:11:02 10° WNW 05:15:09 30° SW 05:19:13 10° SSE night (unlit)
27 Feb - 19:19:34 10° S 19:23:08 21° SE 19:26:44 10° E daylight
27 Feb - 21:00:14 10° WSW 21:04:54 58° NW 21:09:38 10° NE visible
27 Feb - 22:44:39 10° WNW 22:47:47 17° NNW 22:50:56 10° NNE visible
28 Feb - 00:29:41 10° NNW 00:31:29 12° N 00:33:18 10° NNE night (unlit)
28 Feb - 02:11:18 10° NNW 02:15:02 22° NNE 02:18:44 10° ENE night (unlit)
28 Feb - 03:52:49 10° NW 03:57:36 86° SW 04:02:18 10° SE night (unlit)
28 Feb - 05:37:27 10° WSW 05:39:04 12° SW 05:40:42 10° SSW night (unlit)
28 Feb - 19:42:35 10° SSW 19:47:10 53° SE 19:51:49 10° ENE visible
28 Feb - 21:25:16 10° W 21:29:26 30° NNW 21:33:38 10° NNE visible
28 Feb - 23:10:36 10° NW 23:12:46 13° N 23:14:57 10° NNE visible
29 Feb - 00:53:59 10° NNW 00:56:33 14° NNE 00:59:07 10° NE night (unlit)
29 Feb - 02:35:14 10° NW 02:39:42 38° NNE 02:44:07 10° E night (unlit)
29 Feb - 04:17:25 10° WNW 04:21:45 35° SW 04:26:00 10° SSE night (unlit)
29 Feb - 18:26:32 10° S 18:29:44 18° SE 18:32:57 10° E daylight
29 Feb - 20:06:42 10° WSW 20:11:25 67° NW 20:16:11 10° NE visible
29 Feb - 21:50:53 10° WNW 21:54:12 18° NNW 21:57:32 10° NNE visible
29 Feb - 23:36:06 10° NNW 23:37:52 12° N 23:39:38 10° NNE night (unlit)
01 Mar - 01:17:54 10° NNW 01:21:28 20° NNE 01:25:01 10° ENE night (unlit)
01 Mar - 02:59:20 10° NW 03:04:07 82° NE 03:08:50 10° SE night (unlit)
01 Mar - 04:43:14 10° W 04:45:41 14° SW 04:48:08 10° SSW night (unlit)
01 Mar - 18:49:15 10° SSW 18:53:43 44° SE 18:58:15 10° ENE daylight
01 Mar - 20:31:37 10° W 20:35:54 33° NNW 20:40:13 10° NE visible
01 Mar - 22:16:50 10° NW 22:19:09 13° N 22:21:29 10° NNE visible
02 Mar - 00:00:32 10° NNW 00:02:56 14° N 00:05:20 10° NE night (unlit)
02 Mar - 01:41:48 10° NW 01:46:10 34° NNE 01:50:30 10° E night (unlit)
02 Mar - 03:23:49 10° WNW 03:28:18 41° SW 03:32:43 10° SSE night (unlit)
02 Mar - 17:33:37 10° SSE 17:36:19 15° SE 17:39:02 10° E daylight
02 Mar - 19:13:12 10° SW 19:17:55 77° NW 19:22:42 10° NE daylight
02 Mar - 20:57:08 10° WNW 21:00:37 20° NNW 21:04:07 10° NNE visible
02 Mar - 22:42:29 10° NNW 22:44:14 12° N 22:45:59 10° NNE visible
